Flag for Germany Weather past 2 weeks in Kempten, Bavaria, Germany

Now
52 °F

Clear.


Feels Like: 52 °F
Forecast: 53 / 82 °F
Wind: 2 mph from Southeast

Location: Kempten

Current Time: Aug 3, 2015 at 5:29:27 AM

Latest Report: Aug 3, 2015 at 4:00 AM


Visibility: 6 mi

Pressure: 30.10 "Hg (27.76 "Hg at 673m altitude)

Humidity: 97%

Dew point: 51 °F

Location of KemptenLocation

Historic Weather in Kempten — Graph

°F

Kempten temperature yesterday

Maximum temperature yesterday: 74 °F (at 6:00 PM)
Minimum temperature yesterday: 59 °F (at 7:00 AM)
Average temperature yesterday: 66 °F

Past Weeks' High & Low Weather Summary

 TemperatureHumidityPressure
High88 °F (Jul 22, 2:00 PM)98% (Jul 30, 1:00 AM)30.13 "Hg (Jul 30, 1:00 AM)
Low44 °F (Jul 31, 7:00 AM)32% (Jul 21, 7:00 PM)29.64 "Hg (Jul 24, 6:00 PM)
Average66 °F69%29.92 "Hg
* Reported Jul 19 4:00 AM — Aug 3 4:00 AM, Kempten, Weather by CustomWeather, © 2015

Note: Actual official high and low records may vary slightly from our data, if they occured in-between our weather recording intervals... More about our weather records

Advertising

Kempten weather history for previous 24 hours

 ConditionsComfort  
Time TempWeatherWind HumidityBarometerVisibility
4:00 AM
Mon, Aug 3
52 °FClear.2 mph97%30.10 "Hg6 mi
3:00 AM53 °FClear.2 mph96%30.10 "Hg10 mi
2:00 AM54 °FClear.2 mph95%30.10 "Hg11 mi
1:00 AM56 °FClear.2 mph90%30.10 "Hg17 mi
10:00 PM
Sun, Aug 2
62 °FClear.1 mph77%30.08 "Hg22 mi
9:00 PM68 °FClear.2 mph60%30.04 "Hg28 mi
8:00 PM71 °FSunny.3 mph50%30.02 "Hg28 mi
7:00 PM73 °FSunny.2 mph50%30.02 "Hg25 mi
6:00 PM74 °FSunny.2 mph46%30.01 "Hg16 mi
5:00 PM74 °FSunny.3 mph45%30.01 "Hg11 mi
4:00 PM73 °FPassing clouds.3 mph46%30.03 "Hg6 mi
3:00 PM72 °FPassing clouds.2 mph51%30.04 "Hg19 mi
2:00 PM67 °FOvercast.2 mph67%30.09 "Hg15 mi
1:00 PM67 °FOvercast.1 mph68%30.10 "Hg14 mi
12:00 PM66 °FOvercast.2 mph65%30.10 "Hg15 mi
11:00 AM64 °FOvercast.2 mph78%30.11 "Hg17 mi
10:00 AM63 °FOvercast.2 mph78%30.10 "Hg11 mi
9:00 AM63 °FOvercast.2 mph79%30.09 "Hg18 mi
8:00 AM59 °FOvercast.2 mph92%30.09 "Hg19 mi
7:00 AM59 °FLight rain. Overcast.1 mph93%30.09 "Hg11 mi
Weather by CustomWeather, © 2015

See weather overviewHow to use our weather pages